Regional Weather Roundup
Issued by NWS Upton, NY

Current Version | Previous Version | Graphics & Text | Print | Product List | Glossary Off
Versions: 1 2 3 4 5 6 7 8 9 10 11 12 13 14 15 16 17 18 19 20 21 22 23 24 25 26 27 28 29 30 31 32 33 34 35 36 37 38 39 40 41 42 43 44 45 46 47 48 49 50

000
ASUS41 KOKX 231405
RWROKX

REGIONAL WEATHER ROUNDUP
NATIONAL WEATHER SERVICE NEW YORK NY
1000 AM EDT WED JUL 23 2014

NOTE: "FAIR" INDICATES FEW OR NO CLOUDS BELOW 12,000 FEET WITH NO
SIGNIFICANT WEATHER AND/OR OBSTRUCTIONS TO VISIBILITY.

NYZ071-072-176-178-NJZ106-104-231500-
NEW YORK CITY METRO AREA


CITY           SKY/WX    TMP DP  RH WIND       PRES   REMARKS
CENTRAL PARK   SUNNY     79  67  66 VRB7      29.98F
LAGUARDIA APRT MOSUNNY   80  67  64 SW10      29.95F
KENNEDY INTL   MOSUNNY   78  68  71 S9        29.98F
NEWARK/LIBERTY MOSUNNY   81  70  69 SW9       29.96F
BRNX BOT. GARD   N/A     81  68  65 SW9       29.98F
TETERBORO      PTSUNNY   82  67  60 SW6       29.94F
$$

NYZ177-179-078>081-231500-
LONG ISLAND NEW YORK

CITY           SKY/WX    TMP DP  RH WIND       PRES   REMARKS
FARMINGDALE    MOSUNNY   78  69  73 SW10      29.97F
ISLIP          MOSUNNY   80  69  69 SW12      29.96F
SHIRLEY        SUNNY     79  69  71 SW9       29.98F
WESTHAMPTON    MOSUNNY   77  70  79 SW9       29.99F
MONTAUK POINT    N/A     77  69  76 SW7       29.99F
$$

NYZ052-065-067-231500-
HUDSON VALLEY

CITY           SKY/WX    TMP DP  RH WIND       PRES   REMARKS
WHITE PLAINS   MOSUNNY   79  69  71 VRB5      29.96F
NEWBURGH       SUNNY     79  72  78 W6        29.95F
MONTGOMERY     SUNNY     79  70  74 S5        29.93F
POUGHKEEPSIE   SUNNY     80  70  71 SW8       29.92F
ALBANY         MOSUNNY   81  71  71 S9        29.88F
$$

NJZ001-105-106-008-010-013-015-019>022-104-231500-
NEW JERSEY

CITY           SKY/WX    TMP DP  RH WIND       PRES   REMARKS
NEWARK/LIBERTY MOSUNNY   81  70  69 SW9       29.96F
TETERBORO      PTSUNNY   82  67  60 SW6       29.94F
CALDWELL       SUNNY     79  67  66 VRB3      29.96F
MORRISTOWN     MOSUNNY   81  70  69 SW8       29.96F
SOMERVILLE     SUNNY     80  69  69 S5        29.94F
LINDEN         FAIR      82  69  66 W7        29.97F
SUSSEX         SUNNY     82  71  69 SW6       29.94F
ANDOVER          N/A     78  70  76 SW6       29.96F
TRENTON        MOSUNNY   81  71  71 SW9       29.96F
MILLVILLE      SUNNY     80  73  79 VRB6      30.00F
ATLANTIC CITY  SUNNY     80  72  76 SW7       29.99F
WRIGHTSTOWN    MOSUNNY   80  72  76 SW10      29.96F
TOMS RIVER     MOSUNNY   82  72  69 SW7       29.99F
BELMAR         MOSUNNY   81  70  69 W8        29.98F
$$

PAZ047>061-062-071-231500-
EASTERN PENNSYLVANIA

CITY           SKY/WX    TMP DP  RH WIND       PRES   REMARKS
PHILADELPHIA   MOSUNNY   81  69  67 SW9       29.98F
ALLENTOWN      SUNNY     80  69  69 W7        29.96F
SCRANTON       MOSUNNY   80  69  69 SW9       29.95F
$$

CTZ002-004>006-009-010-012-RIZ004-006-007-MAZ004-011-015-231500-
SOUTHERN NEW ENGLAND
 IN CT

CITY           SKY/WX    TMP DP  RH WIND       PRES   REMARKS
BRADLEY INTL   MOSUNNY   80  68  66 S10       29.91F
HARTFORD       SUNNY     79  67  66 VRB7      29.92F
DANBURY        MOSUNNY   78  67  68 SW9       29.97F
WTRBRY/OXFORD  MOSUNNY   77  68  73 SW6       29.99F
BRIDGEPORT     SUNNY     79  69  71 SW10      29.95F
MERIDEN        MOSUNNY   79  67  66 S8        29.94F
NEW HAVEN      MOSUNNY   78  69  73 SW6       29.95F
CHESTER        FAIR      77  68  73 SW7       29.97F
GROTON         MOSUNNY   73  69  87 S7        29.96F
WILLIMANTIC    PTSUNNY   80  68  66 S9        29.94F

 IN RI

CITY           SKY/WX    TMP DP  RH WIND       PRES   REMARKS
PROVIDENCE     MOSUNNY   80  69  69 SW9       29.95F
BLOCK ISLAND   MOSUNNY   73  66  78 SW16G22   29.99S
WESTERLY       MOSUNNY   77  68  73 SW13      29.98F

 IN MA

CITY           SKY/WX    TMP DP  RH WIND       PRES   REMARKS
BOSTON         MOSUNNY   81  68  64 SW14      29.89F
WORCESTER      MOSUNNY   78  69  73 SW10      29.95F
WESTFIELD      SUNNY     81  70  69 S9        29.91F
PROVINCETOWN   SUNNY     75  72  88 SW18      29.93F
NANTUCKET      MOSUNNY   71  67  87 SW15      29.99S
$$

ANZ330-335-338-340-345-350-353-355-231500-
COASTAL MARINE OBSERVATIONS


STATION/POSITION TIME  SKY/WX   TEMP    WIND        PRES    VSBY  WAVE
                                AIR SEA DIR/SP/G                  HT/PER
                 (UTC)          (F)     (DEG/KT/KT) (MB)    (MI)  (FT/S)
NY HARB ENTRANCE NOT AVBL
4S FIRE IS       NOT AVBL
23SW MTP         1400            73 70              1015.1          3/ 5
HUDSON CANYON    1400            73 74  240/  8/ 10 1016.3          2/ 8
EXECUTION ROCKS  1400            76 71  210/  8/  8   N/A
WESTERN LI SOUND 1400            75     210/  6/  8   N/A           0
CENTRAL LI SOUND 1300            74 72  210/ 10/ 12   N/A           1/ 3
EASTERN LI SOUND 1300            70 67  200/  8/ 10   N/A
ROBBINS REEF     1400            77     220/  9/ 12   N/A
$$


>>>>>>>>>>>>>>>>>>>>>>>>>>>> KEY <<<<<<<<<<<<<<<<<<<<<<<<<<<
>                                                          <
>     SKY/WX - SKY CONDITION/PRESENT WEATHER               <
>     TMP    - TEMPERATURE IN FAHRENHEIT                   <
>     DP     - DEWPOINT IN FAHRENHEIT                      <
>     RH     - RELATIVE HUMIDITY IN PERCENT                <
>     WIND   - DIRECTION AND SPEED IN MPH                  <
>     PRES   - MEAN SEA LEVEL PRESSURE IN INCHES OF HG     <
>     WCI    - WIND CHILL INDEX                            <
>     VSB    - VISIBILITY IN MILES                         <
>     HX     - HEAT INDEX                                  <
>     TC     - TEMPERATURE IN CELSIUS                      <
>     VRB    - VARIABLE WIND DIRECTION                     <
>                                                          <
>>>>>>>>>>>>>>>>>>>>>>>>>>>> KEY <<<<<<<<<<<<<<<<<<<<<<<<<<<





USA.gov is the U.S. government's official web portal to all federal, state and local government web resources and services.